sat.trackr.live / text

‹ back to catalog

STARLINK-32010

NORAD 60279 · 2024-132B

PAYLOAD ACTIVE UNKNOWN

§ Identity

Operator
Country
US
Launch date
2024-07-28
Launch site
AFETR
Launch vehicle
Mass (kg)
RCS (m²)

Purposes: comms

External: N2YO · Heavens-Above · Gunter

§ Orbital elements

Epoch: 2026-09-21T14:40:34.178016Z

Period
94.01 min
Inclination
53.1589°
Eccentricity
0.0001632
Mean motion
15.31697045 rev/d
Perigee alt
469.6 km
Apogee alt
471.9 km
Semi-major
6,848.9 km
B*
-1.6798e-5
RAAN
221.2109°
Arg perigee
90.3173°
Mean anomaly
269.8015°
Rev number
12,157

§ Raw data

STARLINK-320101 60279U 24132B   26264.61150669 -.00000887  00000+0 -16798-4 0  99992 60279  53.1589 221.2109 0001632  90.3173 269.8015 15.31697045121577

JSON: /api/v1/satellites/60279 · /tle

For live sub-satellite position, see the globe view (requires WebGL).

§ Visibility from observer

Set your observer location to see the next 7 days of passes ≥ 10°. The values pass through the URL so the page stays shareable.

No JS? Fill the form by hand. The geolocation button needs JavaScript.